Regional Weather Roundup
Issued by NWS

Home | Current Version | Previous Version | Text Only | Print | Product List | Glossary On
Versions: 1 2 3 4 5 6 7 8 9 10 11 12 13 14 15 16 17 18 19 20 21 22 23 24 25 26 27 28 29 30 31 32 33 34 35 36 37 38 39 40 41 42 43 44 45 46 47 48 49 50
000
ASCA44 KEWX 311020
RWRMX

LATIN AMERICA AND CARIBBEAN REGIONAL WEATHER ROUNDUP
NATIONAL WEATHER SERVICE AUSTIN/SAN ANTONIO TX
500 AM CDT THU JUL 31 2014

NOTE: "FAIR" INDICATED FEW OR NO CLOUDS BELOW 12,000 FEET WITH NO
SIGNIFICANT WEATHER AND/OR OBSTRUCTIONS TO VISIBILITY.

BAJA CALIFORNIA

CITY           SKY/WX    TMP DP  RH WIND       PRES   REMARKS
TIJUANA        FOG       68  64  88 NW6       29.96S VSB 1/2

NORTHWESTERN MEXICO

CITY           SKY/WX    TMP DP  RH WIND       PRES   REMARKS
DURANGO        CLEAR     61  55  82 S5        30.28

NORTHEASTERN MEXICO

CITY           SKY/WX    TMP DP  RH WIND       PRES   REMARKS
MONTERREY      CLEAR     77  66  69 E6        29.91F
NUEVO LAREDO   CLEAR     82  72  69 SE7       29.89
REYNOSA        CLEAR     79  72  78 SE14      29.90
CD. VICTORIA   CLEAR     77  70  78 SE10G22   29.94F

WESTERN MEXICO

CITY           SKY/WX    TMP DP  RH WIND       PRES   REMARKS
DEL BAJIO      CLOUDY    66  59  77 CALM      30.31
GUADALAJARA    CLEAR     66  61  82 CALM      30.21S
MAZATLAN       CLOUDY    79  72  78 CALM      29.88F
P. VALLARTA    MOCLDY    81  75  83 N7        29.93F
ZACATECAS      MOCLDY    55  45  67 S5        30.34R

CENTRAL MEXICO

CITY           SKY/WX    TMP DP  RH WIND       PRES   REMARKS
MEXICO CITY    PTCLDY    57  52  82 NE6       30.35F
MORELIA        MOCLDY    59  59 100 CALM      30.27S
QUERETARO      PTCLDY    59  50  72 CALM      30.34F
S. LUIS POTOSI CLEAR     59  54  82 W5        30.30S
TOLUCA         PTCLDY    50  48  93 CALM      30.42F FOG

SOUTHERN MEXICO

CITY           SKY/WX    TMP DP  RH WIND       PRES   REMARKS
ACAPULCO       MOCLDY    82  75  78 CALM      29.88F

YUCATAN PENINSULA

CITY           SKY/WX    TMP DP  RH WIND       PRES   REMARKS
CAMPECHE       CLEAR     77  73  88 CALM      29.93
CANCUN         PTCLDY    72  72 100 NW3       29.98S
CD. DEL CARMEN PTCLDY    81  75  83 CALM      29.94S
COZUMEL        PTCLDY    72  72 100 CALM      29.97F
MERIDA         PTCLDY    75  72  88 E5        29.97F
MINATITLAN     PTCLDY    82  68  61 CALM      29.93
TAPACHULA      MOCLDY    75  72  88 CALM      29.93R
VILLAHERMOSA   CLEAR     79  75  89 E6        29.95

CENTRAL AMERICA

CITY           SKY/WX    TMP DP  RH WIND       PRES   REMARKS
MANAGUA        MOSUNNY   81  72  74 E9        29.83S

CARIBBEAN

CITY           SKY/WX    TMP DP  RH WIND       PRES   REMARKS
CURACAO        PTCLDY    81  75  83 SE10      29.92S
KINGSTON       PTCLDY    81  73  78 N7        29.92S
SAN JUAN       PTCLDY    79  73  83 CALM      30.00R
SANTO DOMINGO  PTCLDY    73  72  94 NE6       29.94S
ST. CROIX      MOCLDY    81  75  83 E12       30.00S
ST. KITTS      PTCLDY    81  75  83 E8        30.00
ST. MAARTEN    LGT RAIN  81  73  78 E9        30.02R
ST. THOMAS     CLEAR     81  77  89 E7        30.00R

$$



USA.gov is the U.S. government's official web portal to all federal, state and local government web resources and services.